(228442) = 2001 QJ159

Discovered at Anderson Mesa on 2001-08-23 by LONEOS.

Orbit

Orbit type: Main Belt

Note: WebGL enabled browser required.

epoch2023-09-13.0
epoch JD2460200.5
perihelion date2020-06-27.91661
perihelion JD2459028.41661
argument of perihelion (°)329.06318
ascending node (°)17.41609
inclination (°)1.53909
eccentricity0.1962644
perihelion distance (AU)1.9409657
Tisserand w.r.t. Jupiter3.5
ΔV w.r.t. Earth (km/sec)8.7
semimajor axis (AU)2.4149306
mean anomaly (°)307.82606
mean daily motion (°/day)0.26263150
aphelion distance (AU)2.889
period (years)3.75
P-vector [x]0.97222985
P-vector [y]-0.20884995
P-vector [z]-0.10559743
Q-vector [x]0.23388991
Q-vector [y]0.88261954
Q-vector [z]0.40777231
absolute magnitude17.26
phase slope0.15
uncertainty0
referenceMPO 778604
observations used350
oppositions13
arc length (days)8493
first opposition used2000
last opposition used2023
residual rms (arc-secs)0.84
perturbers coarse indicatorM-v
perturbers precise indicator003Ek
first observation date used2000-04-05.0
last observation date used2023-07-07.0
computer nameMPCLINUX
JD of orbit computation2456639.629821
perihelion JD uncertainty (days)4.1273E-04
argument of perihelion uncertainty (°)3.0783E-04
ascending node uncertainty (°)3.0322E-04
inclination uncertainty (°)1.1505E-05
eccentricity uncertainty 3.8892E-07
perihelion distance uncertainty (AU)8.4883E-07
Minimum Orbit Intersection Distances (in AU)
for orbit epoch: 2460000.5, reference: E2023-N34
Mercury1.55492
Venus1.21507
Earth0.9328
Mars0.5574
Jupiter2.51352
Saturn6.40306
Uranus15.5522
Neptune27.6092

Observations

344 total observations over interval: 2000 04 05.26029 – 2023 07 07.354075
These data are available for download (format description).

Date (UT) J2000 RA J2000 Dec Magn Location Ref
2000 04 05.26029 12 50 59.05 -05 19 02.5 20.9 V 691 – Steward Observatory, Kitt Peak-Spacewatch MPS 155193
2000 04 05.28159 12 50 57.80 -05 18 55.7 21.1 V 691 – Steward Observatory, Kitt Peak-Spacewatch MPS 155193
2000 04 05.30277 12 50 56.57 -05 18 48.6 20.9 V 691 – Steward Observatory, Kitt Peak-Spacewatch MPS 155193
2001 08 23.27504 22 56 05.87 -09 05 47.9 19.0 R 699 – Lowell Observatory-LONEOS MPS 34762
2001 08 23.29842 22 56 04.70 -09 05 52.5   699 – Lowell Observatory-LONEOS MPS 34762
2001 08 23.32180 22 56 03.55 -09 05 58.4   699 – Lowell Observatory-LONEOS MPS 34762
2001 08 23.34527 22 56 02.49 -09 06 04.5   699 – Lowell Observatory-LONEOS MPS 34762
2001 08 27.24980 22 52 57.13 -09 21 40.9 18.2 R 699 – Lowell Observatory-LONEOS MPS 34762
2001 08 27.27334 22 52 56.00 -09 21 46.5   699 – Lowell Observatory-LONEOS MPS 34762
2001 08 27.29688 22 52 54.68 -09 21 52.5   699 – Lowell Observatory-LONEOS MPS 34762
2001 08 27.32035 22 52 53.49 -09 21 58.1   699 – Lowell Observatory-LONEOS MPS 34762
2001 09 12.27677 22 39 38.85 -10 22 27.6 19.1   704 – Lincoln Laboratory ETS, New Mexico MPS 34762
2001 09 12.29208 22 39 38.02 -10 22 30.7 19.3   704 – Lincoln Laboratory ETS, New Mexico MPS 34762
2001 09 12.30692 22 39 37.36 -10 22 34.1 19.9   704 – Lincoln Laboratory ETS, New Mexico MPS 34762
2001 09 12.32211 22 39 36.57 -10 22 36.4 20.0   704 – Lincoln Laboratory ETS, New Mexico MPS 34762
2001 09 20.17620 22 34 03.14 -10 43 29.2 19.2   704 – Lincoln Laboratory ETS, New Mexico MPS 36059
2001 09 20.19035 22 34 02.58 -10 43 30.1 19.3   704 – Lincoln Laboratory ETS, New Mexico MPS 36059
2001 09 20.20465 22 34 01.99 -10 43 31.7 19.6   704 – Lincoln Laboratory ETS, New Mexico MPS 36059
2001 09 20.21881 22 34 01.46 -10 43 33.7 19.5   704 – Lincoln Laboratory ETS, New Mexico MPS 36059
2001 09 20.23298 22 34 00.86 -10 43 35.5 19.3   704 – Lincoln Laboratory ETS, New Mexico MPS 36059
2001 09 22.17765 22 32 51.46 -10 47 16.5 19.0   704 – Lincoln Laboratory ETS, New Mexico MPS 36059
2001 09 22.19181 22 32 50.94 -10 47 18.5 19.0   704 – Lincoln Laboratory ETS, New Mexico MPS 36059
2001 09 22.20597 22 32 50.40 -10 47 19.8 19.7   704 – Lincoln Laboratory ETS, New Mexico MPS 36059
2001 09 22.22014 22 32 49.92 -10 47 21.1 19.2   704 – Lincoln Laboratory ETS, New Mexico MPS 36059
2001 09 22.23430 22 32 49.34 -10 47 22.8 18.6   704 – Lincoln Laboratory ETS, New Mexico MPS 36059
2005 09 30.34271 02 35 46.39 +15 37 53.3 18.8 V G96 – Mt. Lemmon Survey MPS 155193
2005 09 30.34939 02 35 46.17 +15 37 52.7 18.9 V G96 – Mt. Lemmon Survey MPS 155193
2005 09 30.35604 02 35 45.96 +15 37 52.4 18.8 V G96 – Mt. Lemmon Survey MPS 155193
2005 09 30.36274 02 35 45.74 +15 37 52.1 18.8 V G96 – Mt. Lemmon Survey MPS 155193
2005 10 06.32192 02 32 17.26 +15 28 53.1 19.1 V 703 – Catalina Sky Survey MPS 155193
2005 10 06.32765 02 32 16.90 +15 28 52.9 19.2 V 703 – Catalina Sky Survey MPS 155193
2005 10 06.33321 02 32 16.72 +15 28 51.7 19.1 V 703 – Catalina Sky Survey MPS 155193
2005 10 06.33883 02 32 16.47 +15 28 52.1 20.0 V 703 – Catalina Sky Survey MPS 155193
2005 10 14.28176 02 26 05.88 +15 09 04.3 19.3 R 699 – Lowell Observatory-LONEOS MPS 155193
2005 10 14.30459 02 26 04.56 +15 08 59.9   699 – Lowell Observatory-LONEOS MPS 155193
2005 10 14.32745 02 26 03.29 +15 08 56.0   699 – Lowell Observatory-LONEOS MPS 155193
2005 10 14.35031 02 26 02.12 +15 08 51.7   699 – Lowell Observatory-LONEOS MPS 155193
2005 10 24.23917 02 16 45.24 +14 34 35.9 18.7 R 699 – Lowell Observatory-LONEOS MPS 147262
2005 10 24.26111 02 16 43.92 +14 34 29.5   699 – Lowell Observatory-LONEOS MPS 147262
2005 10 24.28306 02 16 42.53 +14 34 24.3   699 – Lowell Observatory-LONEOS MPS 147262
2005 10 24.30501 02 16 41.19 +14 34 19.9   699 – Lowell Observatory-LONEOS MPS 147262
2005 10 27.29641 02 13 43.89 +14 22 37.8 19.4 V G96 – Mt. Lemmon Survey MPS 147262
2005 10 27.30326 02 13 43.46 +14 22 36.1 19.4 V G96 – Mt. Lemmon Survey MPS 147262
2005 10 27.31024 02 13 43.06 +14 22 34.5 19.4 V G96 – Mt. Lemmon Survey MPS 147262
2005 10 27.31692 02 13 42.63 +14 22 32.9 19.4 V G96 – Mt. Lemmon Survey MPS 147262
2005 11 04.27190 02 06 01.99 +13 50 47.5 19.1   704 – Lincoln Laboratory ETS, New Mexico MPS 149243
2005 11 04.28431 02 06 01.26 +13 50 46.0 19.4   704 – Lincoln Laboratory ETS, New Mexico MPS 149243
2005 11 04.29671 02 06 00.58 +13 50 42.0 19.9   704 – Lincoln Laboratory ETS, New Mexico MPS 149243
2005 11 04.30931 02 05 59.82 +13 50 37.9 19.5   704 – Lincoln Laboratory ETS, New Mexico MPS 149243
2005 11 06.27192 02 04 12.85 +13 43 02.7 20.0   704 – Lincoln Laboratory ETS, New Mexico MPS 149243
2005 11 06.28444 02 04 12.05 +13 42 58.3 20.3   704 – Lincoln Laboratory ETS, New Mexico MPS 149243
2005 11 06.29686 02 04 11.46 +13 42 55.6 20.0   704 – Lincoln Laboratory ETS, New Mexico MPS 149243
2005 11 06.30932 02 04 10.79 +13 42 54.9 19.8   704 – Lincoln Laboratory ETS, New Mexico MPS 149243
2005 11 26.28738 01 51 13.03 +12 45 46.8 19.6 V G96 – Mt. Lemmon Survey MPS 151858
2005 11 26.29414 01 51 12.85 +12 45 46.0 19.8 V G96 – Mt. Lemmon Survey MPS 151858
2005 11 26.30115 01 51 12.67 +12 45 45.3 19.8 V G96 – Mt. Lemmon Survey MPS 151858
2005 11 26.30806 01 51 12.49 +12 45 44.6 19.6 V G96 – Mt. Lemmon Survey MPS 151858
2005 12 01.07134 01 49 53.79 +12 40 12.3 20.1 V 691 – Steward Observatory, Kitt Peak-Spacewatch MPS 151858
2005 12 01.09244 01 49 53.51 +12 40 11.2 20.0 V 691 – Steward Observatory, Kitt Peak-Spacewatch MPS 151858
2005 12 01.11346 01 49 53.20 +12 40 10.1 19.9 V 691 – Steward Observatory, Kitt Peak-Spacewatch MPS 151858
2009 11 09.41888 05 32 18.01 +25 14 14.4 20.6 V 691 – Steward Observatory, Kitt Peak-Spacewatch MPS 302095
2009 11 09.43609 05 32 17.34 +25 14 15.3 20.7 V 691 – Steward Observatory, Kitt Peak-Spacewatch MPS 302095
2009 11 09.45330 05 32 16.66 +25 14 16.0 20.5 V 691 – Steward Observatory, Kitt Peak-Spacewatch MPS 302095
2009 11 17.31636 05 26 17.05 +25 17 31.7 21.0 V 691 – Steward Observatory, Kitt Peak-Spacewatch MPS 303188
2009 11 17.33417 05 26 16.05 +25 17 32.2 21.2 V 691 – Steward Observatory, Kitt Peak-Spacewatch MPS 303188
2009 11 17.35189 05 26 15.12 +25 17 32.1 21.5 V 691 – Steward Observatory, Kitt Peak-Spacewatch MPS 303188
2009 12 11.36109 05 00 02.01 +25 02 42.0 19.0 V G96 – Mt. Lemmon Survey MPS 306592
2009 12 11.36623 05 00 01.62 +25 02 41.4 19.1 V G96 – Mt. Lemmon Survey MPS 306592
2009 12 11.37139 05 00 01.29 +25 02 41.1 18.9 V G96 – Mt. Lemmon Survey MPS 306592
2009 12 11.37659 05 00 00.90 +25 02 40.6 19.4 V G96 – Mt. Lemmon Survey MPS 306592
2009 12 19.27776 04 51 18.54 +24 50 12.8 19.9 V G96 – Mt. Lemmon Survey MPS 308569
2009 12 19.29068 04 51 17.67 +24 50 11.5 19.7 V G96 – Mt. Lemmon Survey MPS 308569
2009 12 19.29708 04 51 17.24 +24 50 10.7 20.0 V G96 – Mt. Lemmon Survey MPS 308569
2010 01 07.22091 04 36 23.14 +24 18 12.7 20.7 V G96 – Mt. Lemmon Survey MPS 310095
2010 01 07.22800 04 36 22.93 +24 18 12.0 20.9 V G96 – Mt. Lemmon Survey MPS 310095
2010 01 07.23516 04 36 22.68 +24 18 11.5 21.2 V G96 – Mt. Lemmon Survey MPS 310095
2010 01 07.24231 04 36 22.42 +24 18 10.9 21.2 V G96 – Mt. Lemmon Survey MPS 310095
2011 03 14.37918 11 33 22.17 +03 57 26.9 20.5 V G96 – Mt. Lemmon Survey MPS 375308
2011 03 14.38720 11 33 21.70 +03 57 29.7 20.1 V G96 – Mt. Lemmon Survey MPS 375308
2011 03 14.39525 11 33 21.27 +03 57 32.4 20.5 V G96 – Mt. Lemmon Survey MPS 375308
2011 03 14.40340 11 33 20.80 +03 57 35.0 20.1 V G96 – Mt. Lemmon Survey MPS 375308
2013 12 11.34014 07 40 42.88 +23 48 10.4 20.5 V G96 – Mt. Lemmon Survey MPS 491849
2013 12 11.34486 07 40 42.70 +23 48 11.6 20.2 V G96 – Mt. Lemmon Survey MPS 491849
2013 12 11.34956 07 40 42.49 +23 48 11.2 20.7 V G96 – Mt. Lemmon Survey MPS 491849
2013 12 11.35425 07 40 42.25 +23 48 12.3 20.9 V G96 – Mt. Lemmon Survey MPS 491849
2015 04 09.24380 12 41 07.73 -04 15 45.0 20.4 V G96 – Mt. Lemmon Survey MPS 598311
2015 04 09.24787 12 41 07.53 -04 15 43.6 20.6 V G96 – Mt. Lemmon Survey MPS 598311
2015 04 09.25194 12 41 07.28 -04 15 41.8 20.8 V G96 – Mt. Lemmon Survey MPS 598311
2015 04 09.25602 12 41 07.05 -04 15 40.3 20.9 V G96 – Mt. Lemmon Survey MPS 598311
2015 04 13.38465 12 37 22.317 -03 53 57.21 21.0 w F51 – Pan-STARRS 1, Haleakala MPS 600216
